Retour au catalogue

H-2A R/B

ActifVLEO
NORAD 41341·ROCKET BODY·🇯🇵 Japan

Lancé Feb 17, 2016 depuis Tanegashima Space Center

Loading…

Prochains Passages (prochaines 24 heures)

TLE

FraisSource: Space-Track

Époque: Sep 14, 2026, 09:58 UTC

1 41341U 16012E   26257.41594413  .00051702  00000-0  49079-3 0  9993
2 41341  30.6210   5.9732 0004779 143.0025 217.0951 15.65535706585494

Suivez H-2A R/B en temps réel avec AllMySat

Download on the App Store